Location: Mount Kobau Star Party
(49.1167°N, 119.7333°W)
Time: 12:33:12
(UTC-07:00)

ARIANE 6 FM1 Upper Stage - Pass Details

Date: 17 April 2026
Orbit: 526 x 601 km, 62.0° (Epoch: 18 May)

Event Time Altitude Azimuth Distance (km) Brightness Sun altitude
Rises 00:13:41 0° 316° (NW) 2,681 7.0 -29.6°
Reaches altitude 10° 00:16:26 10° 335° (NNW) 1,781 6.1 -29.7°
Maximum altitude 00:19:18 19° 21° (NNE) 1,318 5.1 -29.7°
Enters shadow 00:20:06 18° 37° (NE) 1,359 5.0 -29.8°
